This is the latest recevied weather packets stored in our database for station/object VA7NIC-10. If no packets are shown the sender has not sent any weather packets the latest 10 day(s).
| Time | Temp. | Humidity | Pressure | Rain* | Wind** | Luminosity | Snow |
|---|---|---|---|---|---|---|---|
| 1777887422 | 14.44° C | 64% | 1008.8 hPa | 0 mm | - | - | - |
| 1777886522 | 14.44° C | 63% | 1008.7 hPa | 0 mm | - | - | - |
| 1777885622 | 15° C | 62% | 1008.8 hPa | 0 mm | - | - | - |
| 1777884722 | 15° C | 60% | 1008.8 hPa | 0 mm | - | - | - |
| 1777883821 | 15.56° C | 58% | 1008.9 hPa | 0 mm | - | - | - |
| 1777882921 | 15.56° C | 58% | 1008.9 hPa | 0 mm | - | - | - |
| 1777882021 | 16.11° C | 55% | 1008.9 hPa | 0 mm | - | - | - |
| 1777881121 | 16.11° C | 55% | 1008.9 hPa | 0 mm | - | - | - |
| 1777880221 | 16.67° C | 54% | 1008.8 hPa | 0 mm | - | - | - |
| 1777879321 | 16.67° C | 54% | 1008.7 hPa | 0 mm | - | - | - |
| 1777878421 | 17.22° C | 53% | 1008.8 hPa | 0 mm | - | - | - |
| 1777877521 | 17.22° C | 51% | 1008.8 hPa | 0 mm | - | - | - |
| 1777876622 | 17.78° C | 50% | 1008.7 hPa | 0 mm | - | - | - |
| 1777875722 | 18.33° C | 48% | 1008.7 hPa | 0 mm | - | - | - |
| 1777874822 | 18.33° C | 46% | 1008.8 hPa | 0 mm | - | - | - |
| 1777873922 | 18.89° C | 44% | 1008.7 hPa | 0 mm | - | - | - |
| 1777873022 | 19.44° C | 43% | 1008.7 hPa | 0 mm | - | - | - |
| 1777872122 | 20° C | 43% | 1008.7 hPa | 0 mm | - | - | - |
| 1777871222 | 20.56° C | 41% | 1008.6 hPa | 0 mm | - | - | - |
| 1777870322 | 21.11° C | 40% | 1008.6 hPa | 0 mm | - | - | - |
| 1777869421 | 22.22° C | 38% | 1008.5 hPa | 0 mm | - | - | - |
| 1777868521 | 23.33° C | 35% | 1008.6 hPa | 0 mm | - | - | - |
| 1777867621 | 24.44° C | 31% | 1008.5 hPa | 0 mm | - | - | - |
| 1777866721 | 24.44° C | 29% | 1008.5 hPa | 0 mm | - | - | - |
| 1777865821 | 25° C | 30% | 1008.5 hPa | 0 mm | - | - | - |
* Rain latest hour (hover to see other rain measurements)
** Current wind speed in m/s (hover to see current wind gust speed)